Regional Weather Roundup
Issued by NWS

Home | Current Version | Previous Version | Graphics & Text | Print | Product List | Glossary On
Versions: 1 2 3 4 5 6 7 8 9 10 11 12 13 14 15 16 17 18 19 20 21 22 23 24 25 26 27 28 29 30 31 32 33 34 35 36 37 38 39 40 41 42 43 44 45 46 47 48 49 50
193
ASUS43 KFSD 102102
RWRSD

WEATHER ROUNDUP FOR SOUTH DAKOTA
NATIONAL WEATHER SERVICE SIOUX FALLS SD
300 PM CST WED FEB 10 2016

NOTE: "FAIR" INDICATES FEW OR NO CLOUDS BELOW 12,000 FEET WITH NO
SIGNIFICANT WEATHER AND/OR OBSTRUCTIONS TO VISIBILITY.


SDZ001>005-009-010-012>017-102200-
NORTHWEST AND NORTH CENTRAL SOUTH DAKOTA

CITY           SKY/WX    TMP DP  RH WIND       PRES   REMARKS
BUFFALO          N/A     51  30  44 NW22G29   29.91R
FAITH            N/A     50  29  44 N22G32    29.92R
MOBRIDGE       CLOUDY    29  21  72 N8        29.97R WCI  21
$$

SDZ012>016-024>037-041>051-057-063-072>074-102200-
SOUTHWEST AND SOUTH CENTRAL SOUTH DAKOTA

CITY           SKY/WX    TMP DP  RH WIND       PRES   REMARKS
RAPID CTY ARPT SUNNY     61  21  21 NW25G40   29.93R
PIERRE         SUNNY     46  30  53 N20       29.90R
CUSTER         CLOUDY    55  16  21 NW12G26   29.99R
ELLSWORTH AFB  SUNNY     60  24  25 N23G31    29.93R
PHILIP         SUNNY     57  32  38 N18       29.91R
PINE RIDGE     SUNNY     63  24  22 N14       29.92S
WINNER         FAIR      50  30  46 N18       29.87R
$$

SDZ004>011-016>023-039-040-102200-
NORTHEAST SOUTH DAKOTA

CITY           SKY/WX    TMP DP  RH WIND       PRES   REMARKS
ABERDEEN       CLOUDY    19  12  74 E9        30.03R WCI   8
WATERTOWN      CLOUDY    12   5  73 E10       29.98R WCI  -1
BROOKINGS      CLOUDY    13   8  81 E12       29.97R WCI  -1
SISSETON         N/A     10   5  80 SE9       30.09R WCI  -3
$$

SDZ017-020-022-023-036>040-048>070-102200-
SOUTHEAST SOUTH DAKOTA

CITY           SKY/WX    TMP DP  RH WIND       PRES   REMARKS
SIOUX FALLS    CLOUDY    17  12  80 E15       29.97R WCI   2
HURON          CLOUDY    24  16  71 E13       29.98R WCI  12
MITCHELL       MOSUNNY   30  22  72 SE14      29.94R WCI  19
YANKTON        SUNNY     27  19  74 E17       29.93R WCI  14
$$

ABBREVIATIONS USED IN REMARKS
   TC - TEMPERATURE IN CELSIUS
  WCI - WIND CHILL INDEX
   HX - HEAT INDEX
  VSB - VISIBILITY





USA.gov is the U.S. government's official web portal to all federal, state and local government web resources and services.